RH
40 40 41 40 41 45 44 39 30 29 36 50 53 75 76 73 70 70 77 74 82 92
46 47 49 50 49 48 52 49 43 39 28 40 47 54 76 78 82 76 74 72 81 87
59 64 63 62 62 60 58 59 61 61 40 32 40 49 58 64 72 74 79 79 79 76
78 76 72 76 76 75 74 70 68 64 54 44 41 46 59 65 68 78 86 89 84 75
84 86 82 85 87 89 89 84 78 77 71 52 46 53 66 64 82 85 95 86 86 76
92 94 92 95 97 96 97 94 87 85 81 65 64 78 75 72 74 85 88 86 84 77
96 97 97 97 97 97 97 97 92 95 93 72 73 81 85 86 96 95 88 82 82 83
91 96 97 97 97 97 97 97 97 94 97 98 93 98 97 90 97 89 87 76 67 64
87 93 97 98 97 97 97 97 98 90 95 94 97 96 95 78 79 76 69 61 49 43
76 84 87 92 95 97 96 97 98 97 95 91 94 86 86 79 77 71 64 50 38 33
58 70 79 81 83 85 90 94 93 95 97 97 93 85 72 70 67 59 53 48 43 38
47 51 61 70 75 74 73 75 81 83 87 90 91 84 75 65 56 48 49 47 44 44
42 42 46 54 61 65 67 65 66 68 69 71 77 81 75 67 63 55 53 47 49 50
43 42 42 42 44 50 53 55 57 53 59 57 60 68 78 74 66 64 58 55 52 47